TimeEDT,TemperatureF,Dew PointF,Humidity,Sea Level PressureIn,VisibilityMPH,Wind Direction,Wind SpeedMPH,Gust SpeedMPH,PrecipitationIn,Events,Conditions,WindDirDegrees,DateUTC
12:56 AM,55.0,50.0,83,30.01,-9999.0,SW,5.8,-,N/A,,Unknown,220,2013-09-09 04:56:00
1:56 AM,57.0,51.1,81,30.00,-9999.0,SW,4.6,-,N/A,,Unknown,220,2013-09-09 05:56:00
2:56 AM,57.9,53.1,84,29.99,-9999.0,SSW,6.9,-,N/A,,Unknown,200,2013-09-09 06:56:00
3:56 AM,57.9,53.1,84,29.97,-9999.0,South,6.9,-,N/A,,Unknown,190,2013-09-09 07:56:00
4:56 AM,60.1,55.0,83,29.96,-9999.0,SSW,8.1,-,N/A,,Unknown,210,2013-09-09 08:56:00
5:56 AM,60.1,55.0,83,29.94,-9999.0,SSW,6.9,-,N/A,,Unknown,200,2013-09-09 09:56:00
6:56 AM,62.1,57.0,84,29.93,-9999.0,SSW,10.4,-,N/A,,Unknown,200,2013-09-09 10:56:00
7:56 AM,62.1,57.9,86,29.92,-9999.0,SSW,9.2,-,N/A,,Unknown,200,2013-09-09 11:56:00
8:56 AM,63.0,57.9,84,29.92,-9999.0,SSW,8.1,-,N/A,,Unknown,210,2013-09-09 12:56:00
9:56 AM,64.9,57.9,78,29.91,-9999.0,SSW,9.2,-,N/A,,Unknown,200,2013-09-09 13:56:00
10:56 AM,64.9,59.0,81,29.92,-9999.0,SSW,10.4,17.3,N/A,,Unknown,200,2013-09-09 14:56:00
11:56 AM,68.0,60.1,76,29.91,-9999.0,SSW,8.1,19.6,N/A,,Unknown,200,2013-09-09 15:56:00
12:56 PM,66.9,61.0,81,29.90,-9999.0,SSW,8.1,16.1,N/A,,Unknown,200,2013-09-09 16:56:00
1:56 PM,68.0,62.1,81,29.85,-9999.0,SSW,10.4,-,0.01,,Unknown,200,2013-09-09 17:56:00
2:56 PM,69.1,64.0,84,29.82,-9999.0,South,12.7,17.3,N/A,,Unknown,190,2013-09-09 18:56:00
3:56 PM,68.0,63.0,84,29.76,-9999.0,South,13.8,24.2,N/A,,Unknown,170,2013-09-09 19:56:00
4:56 PM,68.0,64.0,87,29.77,-9999.0,South,9.2,17.3,N/A,,Unknown,190,2013-09-09 20:56:00
5:56 PM,68.0,64.0,87,29.76,-9999.0,South,9.2,-,N/A,,Unknown,180,2013-09-09 21:56:00
6:56 PM,69.1,64.0,84,29.74,-9999.0,South,6.9,-,N/A,,Unknown,170,2013-09-09 22:56:00
7:56 PM,69.1,64.9,87,29.74,-9999.0,South,6.9,-,N/A,,Unknown,190,2013-09-09 23:56:00
8:56 PM,69.1,64.9,87,29.74,-9999.0,South,5.8,-,N/A,,Unknown,190,2013-09-10 00:56:00
9:56 PM,69.1,66.0,90,29.71,-9999.0,South,8.1,-,N/A,,Unknown,190,2013-09-10 01:56:00
10:56 PM,68.0,66.0,93,29.69,-9999.0,South,8.1,-,N/A,,Unknown,180,2013-09-10 02:56:00
11:56 PM,68.0,64.9,90,29.73,-9999.0,NE,5.8,-,N/A,,Unknown,50,2013-09-10 03:56:00